CW2597 Weather Reports


Display with metric or nautical units.
time (UTC)temp
F
wind
direction
speed
MPH
gust
MPH
rain 1hr
in
rain 24hr
in
rain mn
in
humidity
%
barometer
mb
20260502170510 77 237 0.0 0.0 0.00 0.00 0.00 46 1012.4
20260502170205 77 260 0.0 0.0 0.00 0.00 0.00 45 1013.3
20260502163704 77 249 0.0 2.0 0.00 0.00 0.00 45 1013.6
20260502163510 77 228 0.0 2.0 0.00 0.00 0.00 45 1012.7
20260502163204 77 256 0.0 5.0 0.00 0.00 0.00 44 1013.8
20260502162705 78 236 2.0 8.0 0.00 0.00 0.00 44 1013.8
20260502162510 78 245 0.0 1.0 0.00 0.00 0.00 44 1012.9
20260502161705 78 250 1.0 8.0 0.00 0.00 0.00 43 1013.9
20260502161510 78 244 0.0 3.0 0.00 0.00 0.00 43 1013.0
20260502161205 78 254 0.0 3.0 0.00 0.00 0.00 43 1013.9
20260502160704 79 232 0.0 8.0 0.00 0.00 0.00 42 1014.0
20260502160510 79 254 1.0 9.0 0.00 0.00 0.00 42 1013.1
20260502160205 79 235 2.0 9.0 0.00 0.00 0.00 41 1014.0
20260502152205 80 217 1.0 10.0 0.00 0.00 0.00 39 1014.3
20260502151705 80 248 0.0 3.0 0.00 0.00 0.00 41 1014.3
20260502151510 80 231 0.0 6.0 0.00 0.00 0.00 41 1013.4
20260502150510 80 244 0.0 8.0 0.00 0.00 0.00 41 1013.5
20260502150205 80 233 0.0 2.0 0.00 0.00 0.00 40 1014.4
20260502130705 81 189 1.0 9.0 0.00 0.00 0.00 36 1015.2
20260502130510 81 190 0.0 6.0 0.00 0.00 0.00 36 1014.4
20260502130204 81 205 1.0 3.0 0.00 0.00 0.00 36 1015.3
20260502123704 81 200 1.0 8.0 0.00 0.00 0.00 34 1015.4
20260502123511 82 209 0.0 6.0 0.00 0.00 0.00 33 1014.6
20260502123205 81 203 0.0 3.0 0.00 0.00 0.00 34 1015.5
20260502122705 81 217 1.0 7.0 0.00 0.00 0.00 33 1015.6
20260502122510 81 249 1.0 8.0 0.00 0.00 0.00 33 1014.8
20260502122204 81 193 1.0 9.0 0.00 0.00 0.00 33 1015.6
20260502121705 81 231 1.0 7.0 0.00 0.00 0.00 31 1015.8
20260502121510 81 210 2.0 11.0 0.00 0.00 0.00 31 1014.9
20260502121204 81 197 3.0 12.0 0.00 0.00 0.00 31 1015.8
20260502120704 81 210 2.0 9.0 0.00 0.00 0.00 31 1015.9
20260502120510 81 240 3.0 11.0 0.00 0.00 0.00 33 1015.0
20260502120204 81 228 1.0 12.0 0.00 0.00 0.00 32 1015.9
20260502115705 81 228 5.0 10.0 0.00 0.00 0.00 32 1016.0
20260502115510 81 202 3.0 6.0 0.00 0.00 0.00 32 1015.2
20260502115204 81 205 3.0 10.0 0.00 0.00 0.00 32 1016.0
20260502114705 80 222 2.0 5.0 0.00 0.00 0.00 31 1016.1
20260502114204 81 207 1.0 7.0 0.00 0.00 0.00 31 1016.2
20260502113704 81 210 1.0 7.0 0.00 0.00 0.00 31 1016.2
20260502113512 81 172 2.0 8.0 0.00 0.00 0.00 32 1015.3
20260502113205 81 209 1.0 8.0 0.00 0.00 0.00 30 1016.3
20260502112704 80 204 0.0 12.0 0.00 0.00 0.00 31 1016.3
20260502111704 80 213 1.0 8.0 0.00 0.00 0.00 31 1016.4
20260502111512 80 210 1.0 8.0 0.00 0.00 0.00 30 1015.5
20260502111205 80 220 1.0 8.0 0.00 0.00 0.00 29 1016.5
20260502110512 80 192 1.0 7.0 0.00 0.00 0.00 31 1015.5
20260502110204 80 217 2.0 8.0 0.00 0.00 0.00 29 1016.5
20260502105704 80 231 1.0 10.0 0.00 0.00 0.00 29 1016.6
20260502105512 80 228 1.0 4.0 0.00 0.00 0.00 27 1015.7
20260502104705 80 189 0.0 3.0 0.00 0.00 0.00 26 1016.6
20260502104204 79 177 0.0 3.0 0.00 0.00 0.00 27 1016.7
20260502103704 79 226 0.0 7.0 0.00 0.00 0.00 26 1016.7
20260502103204 79 191 0.0 1.0 0.00 0.00 0.00 26 1016.7
20260502102704 79 210 0.0 5.0 0.00 0.00 0.00 27 1016.8
20260502102512 79 152 0.0 5.0 0.00 0.00 0.00 27 1015.9
20260502101705 79 203 0.0 2.0 0.00 0.00 0.00 28 1016.9
20260502100704 78 188 0.0 5.0 0.00 0.00 0.00 27 1017.1
20260502091512 76 154 0.0 4.0 0.00 0.00 0.00 34 1016.7
20260502090704 75 209 0.0 0.0 0.00 0.00 0.00 36 1017.6
20260502090512 75 179 0.0 1.0 0.00 0.00 0.00 35 1016.7
20260502071512 70 232 0.0 6.0 0.00 0.00 0.00 42 1017.4
20260502071203 70 183 0.0 3.0 0.00 0.00 0.00 41 1018.3
20260502070704 69 181 0.0 2.0 0.00 0.00 0.00 44 1018.3
20260502070204 69 178 0.0 0.0 0.00 0.00 0.00 45 1018.4
20260502065703 68 154 0.0 0.0 0.00 0.00 0.00 45 1018.3
20260502065511 68 202 0.0 1.0 0.00 0.00 0.00 46 1017.4
20260502065203 67 164 0.0 0.0 0.00 0.00 0.00 46 1018.3
20260502064204 65 132 0.0 0.0 0.00 0.00 0.00 52 1018.3
20260502063511 65 103 0.0 0.0 0.00 0.00 0.00 52 1017.3
20260502063204 64 113 0.0 0.0 0.00 0.00 0.00 52 1018.4
20260502062704 63 97 0.0 0.0 0.00 0.00 0.00 53 1018.4
20260502062511 63 101 0.0 0.0 0.00 0.00 0.00 53 1017.4
20260502062204 63 102 0.0 0.0 0.00 0.00 0.00 54 1018.4
20260502061704 62 100 0.0 0.0 0.00 0.00 0.00 54 1018.4
20260502061511 62 113 0.0 0.0 0.00 0.00 0.00 55 1017.5
20260502061204 62 103 0.0 0.0 0.00 0.00 0.00 55 1018.5
20260502060704 62 108 0.0 0.0 0.00 0.00 0.00 56 1018.6
20260502060511 61 108 0.0 0.0 0.00 0.00 0.00 57 1017.5
20260502060203 61 128 0.0 0.0 0.00 0.00 0.00 59 1018.6
20260502055704 60 113 0.0 0.0 0.00 0.00 0.00 59 1018.6
20260502054704 60 113 0.0 0.0 0.00 0.00 0.00 60 1018.6
20260502053704 59 109 0.0 0.0 0.00 0.00 0.00 62 1018.8
20260502053512 59 109 0.0 0.0 0.00 0.00 0.00 62 1017.8
20260502053204 58 109 0.0 0.0 0.00 0.00 0.00 62 1018.9
20260502052704 58 109 0.0 0.0 0.00 0.00 0.00 63 1018.8
20260502052512 58 102 0.0 0.0 0.00 0.00 0.00 63 1017.8
20260502052204 57 102 0.0 0.0 0.00 0.00 0.00 63 1018.8
20260502051704 57 96 0.0 0.0 0.00 0.00 0.00 64 1018.8
20260502051512 57 96 0.0 0.0 0.00 0.00 0.00 65 1017.8
20260502051204 56 117 0.0 0.0 0.00 0.00 0.00 65 1018.8
20260502050513 55 119 0.0 0.0 0.00 0.00 0.00 67 1017.8
20260502050206 55 119 0.0 0.0 0.00 0.00 0.00 69 1018.8
20260502045706 53 119 0.0 0.0 0.00 0.00 0.00 71 1018.9
20260502045511 53 119 0.0 0.0 0.00 0.00 0.00 72 1017.9
20260502045206 52 119 0.0 0.0 0.00 0.00 0.00 74 1018.8
20260502044706 51 119 0.0 0.0 0.00 0.00 0.00 76 1018.9
20260502044512 51 119 0.0 0.0 0.00 0.00 0.00 76 1017.8
20260502043706 50 119 0.0 0.0 0.00 0.00 0.00 77 1018.8
20260502043512 49 119 0.0 0.0 0.00 0.00 0.00 77 1017.8
20260502043205 49 119 0.0 0.0 0.00 0.00 0.00 77 1018.8
20260502042706 49 119 0.0 0.0 0.00 0.00 0.00 77 1018.9
20260502042512 49 119 0.0 0.0 0.00 0.00 0.00 77 1017.8
20260502042205 49 119 0.0 0.0 0.00 0.00 0.00 76 1018.9
20260502041706 50 119 0.0 0.0 0.00 0.00 0.00 76 1018.9
20260502041206 50 119 0.0 0.0 0.00 0.00 0.00 75 1018.9
20260502040705 50 119 0.0 0.0 0.00 0.00 0.00 75 1018.9
20260502040512 50 119 0.0 0.0 0.00 0.00 0.00 75 1017.9
20260502040205 51 119 0.0 0.0 0.00 0.00 0.00 75 1018.9
20260502035511 51 119 0.0 0.0 0.00 0.00 0.00 75 1017.9
20260502035206 51 119 0.0 0.0 0.00 0.00 0.00 75 1019.0
20260502034705 51 119 0.0 0.0 0.00 0.00 0.00 74 1019.1
20260502034206 51 119 0.0 0.0 0.00 0.00 0.00 74 1019.1
20260502033705 51 119 0.0 0.0 0.00 0.00 0.00 73 1019.1
20260502033511 51 119 0.0 0.0 0.00 0.00 0.00 73 1018.1
20260502033206 52 119 0.0 0.0 0.00 0.00 0.00 73 1019.2
20260502032706 52 119 0.0 0.0 0.00 0.00 0.00 73 1019.1
20260502032511 52 119 0.0 0.0 0.00 0.00 0.00 73 1018.1
20260502032206 52 119 0.0 0.0 0.00 0.00 0.00 73 1019.2
20260502031705 52 119 0.0 0.0 0.00 0.00 0.00 73 1019.2
20260502031512 52 119 0.0 0.0 0.00 0.00 0.00 73 1018.2
20260502031205 52 119 0.0 0.0 0.00 0.00 0.00 73 1019.3
20260502030706 52 119 0.0 0.0 0.00 0.00 0.00 73 1019.3
20260502030512 52 119 0.0 0.0 0.00 0.00 0.00 73 1018.3
20260502025706 52 119 0.0 0.0 0.00 0.00 0.00 73 1019.4
20260502025512 52 119 0.0 0.0 0.00 0.00 0.00 73 1018.4
20260502025206 52 119 0.0 0.0 0.00 0.00 0.00 73 1019.5
20260502024705 52 119 0.0 0.0 0.00 0.00 0.00 73 1019.5
20260502024512 52 119 0.0 0.0 0.00 0.00 0.00 73 1018.4
20260502024206 52 119 0.0 0.0 0.00 0.00 0.00 73 1019.5
20260502023706 52 119 0.0 0.0 0.00 0.00 0.00 74 1019.5
20260502023511 52 119 0.0 0.0 0.00 0.00 0.00 74 1018.5
20260502023205 52 119 0.0 0.0 0.00 0.00 0.00 74 1019.6
20260502022705 52 119 0.0 0.0 0.00 0.00 0.00 75 1019.7
20260502022511 52 119 0.0 0.0 0.00 0.00 0.00 75 1018.6
20260502022206 52 119 0.0 0.0 0.00 0.00 0.00 75 1019.7
20260502021706 51 119 0.0 0.0 0.00 0.00 0.00 76 1019.7
20260502021512 51 119 0.0 0.0 0.00 0.00 0.00 76 1018.7
20260502021205 51 119 0.0 0.0 0.00 0.00 0.00 76 1019.8
20260502020706 51 119 0.0 0.0 0.00 0.00 0.00 77 1019.8
20260502020512 51 119 0.0 0.0 0.00 0.00 0.00 77 1018.8
20260502020205 51 119 0.0 0.0 0.00 0.00 0.00 77 1019.8
20260502015511 50 119 0.0 0.0 0.00 0.00 0.00 77 1018.8
20260502015205 51 119 0.0 0.0 0.00 0.00 0.00 76 1019.9
20260502014706 51 119 0.0 0.0 0.00 0.00 0.00 76 1019.9
20260502014511 51 119 0.0 0.0 0.00 0.00 0.00 76 1018.9
20260502014205 51 119 0.0 0.0 0.00 0.00 0.00 76 1020.0
20260502013706 51 119 0.0 0.0 0.00 0.00 0.00 76 1020.1
20260502013511 51 119 0.0 0.0 0.00 0.00 0.00 76 1019.1
20260502013205 51 119 0.0 0.0 0.00 0.00 0.00 76 1020.2
20260502012706 51 119 0.0 0.0 0.00 0.00 0.00 76 1020.2
20260502012512 51 119 0.0 0.0 0.00 0.00 0.00 76 1019.2
20260502012205 51 119 0.0 0.0 0.00 0.00 0.00 76 1020.2
20260502011705 51 119 0.0 0.0 0.00 0.00 0.00 76 1020.3
20260502011511 51 119 0.0 0.0 0.00 0.00 0.00 75 1019.3
20260502010705 52 119 0.0 0.0 0.00 0.00 0.00 75 1020.4
20260502010512 52 119 0.0 0.0 0.00 0.00 0.00 75 1019.4
20260502010206 52 119 0.0 0.0 0.00 0.00 0.00 74 1020.4
20260502005705 52 119 0.0 0.0 0.00 0.00 0.00 74 1020.5
20260502005511 52 119 0.0 0.0 0.00 0.00 0.00 74 1019.5
20260502005206 52 119 0.0 0.0 0.00 0.00 0.00 74 1020.6
20260502004705 52 119 0.0 0.0 0.00 0.00 0.00 73 1020.6
20260502004511 52 119 0.0 0.0 0.00 0.00 0.00 73 1019.6
20260502004205 52 119 0.0 0.0 0.00 0.00 0.00 72 1020.7
20260502003511 53 119 0.0 0.0 0.00 0.00 0.00 72 1019.7
20260502002705 53 119 0.0 0.0 0.00 0.00 0.00 71 1020.8
20260502002511 53 119 0.0 0.0 0.00 0.00 0.00 71 1019.7
20260502002205 53 119 0.0 0.0 0.00 0.00 0.00 71 1020.8
20260502001705 54 119 0.0 0.0 0.00 0.00 0.00 70 1020.8
20260502001512 54 119 0.0 0.0 0.00 0.00 0.00 69 1019.7
20260502001205 54 119 0.0 0.0 0.00 0.00 0.00 69 1020.8
20260502000706 54 119 0.0 0.0 0.00 0.00 0.00 68 1020.8
20260502000205 54 119 0.0 0.0 0.00 0.00 0.00 67 1020.8
20260501235705 55 119 0.0 0.0 0.00 0.00 0.00 67 1020.9
20260501235512 55 119 0.0 0.0 0.00 0.00 0.00 67 1019.9
20260501235205 55 119 0.0 0.0 0.00 0.00 0.00 66 1020.9
20260501234512 55 100 0.0 0.0 0.00 0.00 0.00 65 1020.0
20260501234206 56 100 0.0 0.0 0.00 0.00 0.00 64 1021.0
20260501233705 56 100 0.0 0.0 0.00 0.00 0.00 63 1021.0
20260501233511 56 100 0.0 0.0 0.00 0.00 0.00 63 1020.0
20260501232705 57 100 0.0 0.0 0.00 0.00 0.00 61 1021.1
20260501232511 57 100 0.0 0.0 0.00 0.00 0.00 61 1020.1
20260501232205 57 100 0.0 0.0 0.00 0.00 0.00 60 1021.2
20260501231705 58 100 0.0 0.0 0.00 0.00 0.00 59 1021.2
20260501231514 58 100 0.0 0.0 0.00 0.00 0.00 59 1020.2
20260501231206 58 100 0.0 0.0 0.00 0.00 0.00 59 1021.2
20260501230705 59 100 0.0 0.0 0.00 0.00 0.00 58 1021.2
20260501230206 59 86 0.0 0.0 0.00 0.00 0.00 58 1021.2
20260501225705 59 129 0.0 0.0 0.00 0.00 0.00 58 1021.2
20260501225205 59 119 0.0 0.0 0.00 0.00 0.00 58 1021.2
20260501224706 59 138 0.0 0.0 0.00 0.00 0.00 57 1021.3
20260501224511 59 138 0.0 0.0 0.00 0.00 0.00 57 1020.2
20260501224205 59 106 0.0 0.0 0.00 0.00 0.00 57 1021.3
20260501223706 60 115 0.0 0.0 0.00 0.00 0.00 57 1021.3
20260501223511 60 135 0.0 0.0 0.00 0.00 0.00 57 1020.3
20260501223205 60 168 0.0 0.0 0.00 0.00 0.00 56 1021.3
20260501222705 60 93 0.0 0.0 0.00 0.00 0.00 56 1021.3
20260501222512 60 93 0.0 0.0 0.00 0.00 0.00 56 1020.3
20260501222205 60 127 0.0 0.0 0.00 0.00 0.00 56 1021.4
20260501221205 60 123 0.0 0.0 0.00 0.00 0.00 55 1021.3
20260501220705 60 103 0.0 0.0 0.00 0.00 0.00 54 1021.3
20260501215706 61 88 0.0 0.0 0.00 0.00 0.00 53 1021.3
20260501215511 61 88 0.0 0.0 0.00 0.00 0.00 53 1020.4
20260501215205 61 88 0.0 0.0 0.00 0.00 0.00 53 1021.3
20260501214705 61 153 0.0 0.0 0.00 0.00 0.00 52 1021.3
20260501214511 61 104 0.0 0.0 0.00 0.00 0.00 52 1020.4
20260501214205 61 103 0.0 0.0 0.00 0.00 0.00 52 1021.3
20260501213705 62 92 0.0 0.0 0.00 0.00 0.00 52 1021.3
20260501213511 62 102 0.0 0.0 0.00 0.00 0.00 51 1020.4
20260501213205 62 88 0.0 0.0 0.00 0.00 0.00 51 1021.3
20260501212706 62 93 0.0 0.0 0.00 0.00 0.00 51 1021.3
20260501212511 62 104 0.0 0.0 0.00 0.00 0.00 51 1020.4
20260501212205 63 94 0.0 0.0 0.00 0.00 0.00 50 1021.3
20260501211705 63 101 0.0 0.0 0.00 0.00 0.00 50 1021.3
20260501211511 63 92 0.0 0.0 0.00 0.00 0.00 49 1020.5
20260501211205 63 86 0.0 0.0 0.00 0.00 0.00 49 1021.4
20260501210705 63 88 0.0 1.0 0.00 0.00 0.00 49 1021.4
20260501210511 64 113 0.0 1.0 0.00 0.00 0.00 49 1020.6
20260501210205 64 89 0.0 0.0 0.00 0.00 0.00 48 1021.5
20260501205705 64 97 0.0 0.0 0.00 0.00 0.00 48 1021.5
20260501205511 64 117 0.0 0.0 0.00 0.00 0.00 48 1020.6
20260501205205 64 97 0.0 2.0 0.00 0.00 0.00 48 1021.4
20260501204705 64 105 0.0 0.0 0.00 0.00 0.00 48 1021.5
20260501204205 64 98 0.0 0.0 0.00 0.00 0.00 48 1021.5
20260501203705 64 103 0.0 0.0 0.00 0.00 0.00 48 1021.5
20260501203511 64 76 0.0 0.0 0.00 0.00 0.00 48 1020.6
20260501202705 64 100 0.0 1.0 0.00 0.00 0.00 48 1021.6
20260501202510 64 103 0.0 1.0 0.00 0.00 0.00 48 1020.7
20260501202205 64 84 0.0 0.0 0.00 0.00 0.00 48 1021.7
20260501201705 64 93 0.0 0.0 0.00 0.00 0.00 48 1021.7
20260501201510 64 96 0.0 0.0 0.00 0.00 0.00 48 1020.8
20260501200705 64 103 0.0 0.0 0.00 0.00 0.00 48 1021.7
20260501200510 64 104 0.0 0.0 0.00 0.00 0.00 48 1020.8
20260501200205 64 108 0.0 0.0 0.00 0.00 0.00 47 1021.7
20260501195705 65 94 0.0 0.0 0.00 0.00 0.00 47 1021.7
20260501195510 65 87 0.0 0.0 0.00 0.00 0.00 47 1020.8
20260501195204 65 103 0.0 0.0 0.00 0.00 0.00 47 1021.7
20260501194705 65 97 0.0 0.0 0.00 0.00 0.00 46 1021.7
20260501194510 66 99 0.0 0.0 0.00 0.00 0.00 46 1020.8
20260501194205 66 91 0.0 0.0 0.00 0.00 0.00 45 1021.7
20260501193705 66 95 0.0 0.0 0.00 0.00 0.00 45 1021.7
20260501192705 66 96 0.0 0.0 0.00 0.00 0.00 44 1021.8
20260501192205 66 103 0.0 0.0 0.00 0.00 0.00 44 1021.8
20260501191705 66 95 0.0 0.0 0.00 0.00 0.00 44 1021.8
20260501191511 67 99 0.0 0.0 0.00 0.00 0.00 43 1020.9
20260501191205 67 105 0.0 0.0 0.00 0.00 0.00 43 1021.9
20260501190705 67 99 0.0 0.0 0.00 0.00 0.00 43 1021.8
20260501190510 67 116 0.0 0.0 0.00 0.00 0.00 42 1021.0
20260501190205 68 93 0.0 0.0 0.00 0.00 0.00 42 1021.9
20260501185705 68 96 0.0 0.0 0.00 0.00 0.00 41 1021.9
20260501185510 68 90 0.0 0.0 0.00 0.00 0.00 41 1020.9
20260501185205 68 97 0.0 0.0 0.00 0.00 0.00 41 1021.8
20260501184705 69 94 0.0 0.0 0.00 0.00 0.00 40 1021.8
20260501184510 69 97 0.0 0.0 0.00 0.00 0.00 40 1020.9
20260501184205 69 102 0.0 0.0 0.00 0.00 0.00 40 1021.8
20260501183705 70 99 0.0 0.0 0.00 0.00 0.00 40 1021.8
20260501183510 70 98 0.0 0.0 0.00 0.00 0.00 39 1020.9
20260501183205 70 101 0.0 0.0 0.00 0.00 0.00 39 1021.8
20260501182705 70 97 0.0 0.0 0.00 0.00 0.00 39 1021.8
20260501182510 70 120 0.0 2.0 0.00 0.00 0.00 38 1020.9
20260501182205 71 104 0.0 2.0 0.00 0.00 0.00 38 1021.8
20260501181705 71 91 0.0 2.0 0.00 0.00 0.00 38 1021.8
20260501181510 71 97 0.0 2.0 0.00 0.00 0.00 38 1020.9
20260501181205 71 111 0.0 0.0 0.00 0.00 0.00 37 1021.8
20260501180705 71 93 0.0 3.0 0.00 0.00 0.00 37 1021.8
20260501180205 71 102 0.0 0.0 0.00 0.00 0.00 37 1021.8
20260501175705 72 81 0.0 0.0 0.00 0.00 0.00 37 1021.8
20260501175510 72 78 0.0 0.0 0.00 0.00 0.00 37 1020.9
20260501174705 72 103 0.0 2.0 0.00 0.00 0.00 36 1021.7
20260501174510 72 108 0.0 2.0 0.00 0.00 0.00 36 1020.9
20260501174205 73 101 0.0 1.0 0.00 0.00 0.00 36 1021.7
20260501173205 73 123 0.0 3.0 0.00 0.00 0.00 35 1021.7
20260501172705 73 118 0.0 0.0 0.00 0.00 0.00 35 1021.8
20260501172510 73 106 0.0 0.0 0.00 0.00 0.00 35 1021.0
20260501172205 73 106 0.0 0.0 0.00 0.00 0.00 36 1021.8
20260501171705 73 257 0.0 1.0 0.00 0.00 0.00 35 1021.9
20260501171510 73 123 0.0 0.0 0.00 0.00 0.00 35 1020.9
20260501171204 74 121 0.0 1.0 0.00 0.00 0.00 34 1021.9